23. Mai 2022

Uhrzeit Code Wetter Temp. Sichtweite Wolken Wind METAR/SPECI
09:55
V
15 °C 10 km+ 9.300 ft 150°   150° 11 kt METAR EHVL 230755Z AUTO 15011KT 9999 -RA BKN093 OVC098 15/13 Q1003 BLU
09:25
V
15 °C 10 km+ 8.700 ft 140°   140° 14 kt METAR EHVL 230725Z AUTO 14014KT 9999 -RADZ BKN087 OVC093 15/12 Q1003 BLU
08:55
V
16 °C 10 km+ 8.900 ft 130°   130° 14 kt METAR EHVL 230655Z AUTO 13014KT 9999 OVC089 16/12 Q1003 BLU
08:25
V
16 °C 10 km+ 8.700 ft 120°   120° 13 kt METAR EHVL 230625Z AUTO 12013KT 9999 FEW080 BKN087 OVC094 16/11 Q1003 BLU
07:55
V
16 °C 10 km+ 10.000 ft 130°   130° 13 kt METAR EHVL 230555Z AUTO 13013KT 9999 FEW091 OVC100 16/12 Q1004 BLU
07:25
V
15 °C 10 km+ 21.000 ft 130°   130° 13 kt METAR EHVL 230525Z AUTO 13013KT 9999 OVC210 15/11 Q1004 BLU
06:55
V
15 °C 10 km+ 22.000 ft 130°   130° 13 kt METAR EHVL 230455Z AUTO 13013KT 9999 OVC220 15/11 Q1004 BLU
06:25
V
15 °C 10 km+ 22.000 ft 140°   140° 14 kt METAR EHVL 230425Z AUTO 14014KT 9999 OVC220 15/11 Q1005 BLU
05:55
V
15 °C 10 km+ 22.000 ft 130°   130° 14 kt METAR EHVL 230355Z AUTO 13014KT 9999 OVC220 15/11 Q1005 BLU
05:25
V
15 °C 10 km+ 11.000 ft 140°   140° 15 kt METAR EHVL 230325Z AUTO 14015KT 9999 OVC110 15/11 Q1006 BLU
04:55
V
15 °C 10 km+ 10.000 ft 140°   140° 16 kt METAR EHVL 230255Z AUTO 14016KT 9999 OVC100 15/11 Q1006 BLU
04:25
V
15 °C 10 km+ 10.000 ft 140°   140° 17 kt METAR EHVL 230225Z AUTO 14017KT 9999 OVC100 15/11 Q1006 BLU
03:55
V
16 °C 10 km+ 10.000 ft 140°   140° 17 kt METAR EHVL 230155Z AUTO 14017KT 9999 OVC100 16/11 Q1007 BLU
03:25
V
16 °C 10 km+ 11.000 ft 140°   140° 17 kt METAR EHVL 230125Z AUTO 14017KT 9999 OVC110 16/11 Q1007 BLU
02:55
V
16 °C 10 km+ 11.000 ft 130°   130° 17 kt METAR EHVL 230055Z AUTO 13017KT 9999 OVC110 16/11 Q1007 BLU
02:25
V
16 °C 10 km+ 11.000 ft 130°   130° 18 kt METAR EHVL 230025Z AUTO 13018KT 9999 OVC110 16/11 Q1008 BLU
01:55
V
16 °C 10 km+ 25.000 ft 130°   130° 19 kt METAR EHVL 222355Z AUTO 13019KT 9999 OVC250 16/11 Q1008 BLU
01:25
V
16 °C 10 km+ 23.000 ft 130°   130° 17 kt METAR EHVL 222325Z AUTO 13017KT 9999 SCT120 OVC230 16/11 Q1009 BLU
00:55
V
16 °C 10 km+ 27.000 ft 130°   130° 15 kt METAR EHVL 222255Z AUTO 13015KT 9999 OVC270 16/12 Q1009 BLU
00:25
V
16 °C 10 km+ 26.000 ft 120°   120° 15 kt METAR EHVL 222225Z AUTO 12015KT 9999 OVC260 16/12 Q1009 BLU

22. Mai 2022

Uhrzeit Code Wetter Temp. Sichtweite Wolken Wind METAR/SPECI
23:55
V
16 °C 10 km+ 26.000 ft 130°   130° 14 kt METAR EHVL 222155Z AUTO 13014KT 9999 OVC260 16/12 Q1009 BLU
23:25
V
16 °C 10 km+ 25.000 ft 130°   130° 12 kt METAR EHVL 222125Z AUTO 13012KT 9999 OVC250 16/13 Q1010 BLU
22:55
V
16 °C 10 km+ 25.000 ft 120°   120° 9 kt METAR EHVL 222055Z AUTO 12009KT 9999 OVC250 16/13 Q1010 BLU
22:25
V
16 °C 10 km+ 26.000 ft 090°   090° 10 kt METAR EHVL 222025Z AUTO 09010KT 9999 OVC260 16/14 Q1010 BLU
21:55
V
16 °C 10 km+ 9.500 ft 090°   090° 11 kt METAR EHVL 221955Z AUTO 09011KT 9999 FEW075 BKN095 OVC260 16/13 Q1010 BLU
21:25
V
16 °C 10 km+ 9.500 ft 090°   090° 11 kt METAR EHVL 221925Z AUTO 09011KT 9999 OVC095 16/12 Q1010 BLU
20:55
V
17 °C 10 km+ 32.000 ft 090°   090° 12 kt METAR EHVL 221855Z AUTO 09012KT 9999 OVC320 17/11 Q1011 BLU
20:25
V
17 °C 10 km+ 31.000 ft 090°   090° 11 kt METAR EHVL 221825Z AUTO 09011KT 9999 OVC310 17/11 Q1011 BLU
19:55
V
18 °C 10 km+ 30.000 ft 130°   130° 8 kt METAR EHVL 221755Z AUTO 13008KT 9999 FEW096 OVC300 18/10 Q1012 BLU
19:25
V
18 °C 10 km+ 30.000 ft 110°   110° 8 kt METAR EHVL 221725Z AUTO 11008KT 9999 FEW100 OVC300 18/09 Q1012 BLU
18:55
V
18 °C 10 km+ 10.000 ft 140°   140° 8 kt METAR EHVL 221655Z AUTO 14008KT 9999 BKN100 BKN310 18/08 Q1012 BLU
18:25
V
19 °C 10 km+ 10.000 ft 140°   140° 8 kt METAR EHVL 221625Z AUTO 14008KT 9999 SCT099 OVC100 19/08 Q1013 BLU
17:55
V
19 °C 10 km+ 10.000 ft 120°   120° 9 kt METAR EHVL 221555Z AUTO 12009KT 9999 OVC100 19/07 Q1013 BLU
17:25
V
19 °C 10 km+ 10.000 ft 130°   130° 9 kt METAR EHVL 221525Z AUTO 13009KT 9999 BKN100 BKN280 19/08 Q1013 BLU
16:55
V
18 °C 10 km+ 10.000 ft 140°   140° 9 kt METAR EHVL 221455Z AUTO 14009KT 9999 BKN100 OVC290 18/09 Q1013 BLU
16:25
V
19 °C 10 km+ 10.000 ft 140°   140° 8 kt METAR EHVL 221425Z AUTO 14008KT 9999 BKN100 OVC270 19/09 Q1014 BLU
15:55
V
18 °C 10 km+ 8.600 ft 150°   150° 7 kt METAR EHVL 221355Z AUTO 15007KT 100V190 9999 OVC086 18/09 Q1014 BLU
15:25
V
18 °C 10 km+ 27.000 ft 140°   140° 5 kt METAR EHVL 221325Z AUTO 14005KT 080V170 9999 OVC270 18/10 Q1014 BLU
14:55
V
18 °C 10 km+ 27.000 ft Var   Var 4 kt METAR EHVL 221255Z AUTO VRB04KT 9999 OVC270 18/11 Q1015 BLU
14:25
V
17 °C 10 km+ 26.000 ft 240°   240° 6 kt METAR EHVL 221225Z AUTO 24006KT 9999 SCT180 OVC260 17/11 Q1015 BLU
13:55
V
17 °C 10 km+ 24.000 ft 250°   250° 8 kt METAR EHVL 221155Z AUTO 25008KT 210V270 9999 OVC240 17/10 Q1015 BLU
13:25
V
18 °C 10 km+ - 240°   240° 9 kt METAR EHVL 221125Z AUTO 24009KT 200V280 9999 SCT270 SCT350 18/11 Q1016 BLU
12:55
V
17 °C 10 km+ 35.000 ft 240°   240° 9 kt METAR EHVL 221055Z AUTO 24009KT 9999 BKN350 17/11 Q1016 BLU
12:25
V
17 °C 10 km+ 33.000 ft 230°   230° 10 kt METAR EHVL 221025Z AUTO 23010KT 190V250 9999 BKN330 17/10 Q1016 BLU
11:55
V
18 °C 10 km+ 30.000 ft 230°   230° 10 kt METAR EHVL 220955Z AUTO 23010KT 9999 OVC300 18/10 Q1016 BLU
11:25
V
17 °C 10 km+ 20.000 ft 220°   220° 9 kt METAR EHVL 220925Z AUTO 22009KT 9999 OVC200 17/09 Q1016 BLU
10:55
V
17 °C 10 km+ 22.000 ft 230°   230° 13 kt METAR EHVL 220855Z AUTO 23013KT 9999 OVC220 17/10 Q1017 BLU
10:25
V
17 °C 10 km+ 23.000 ft 230°   230° 12 kt METAR EHVL 220825Z AUTO 23012KT 9999 OVC230 17/09 Q1017 BLU
09:55
V
16 °C 10 km+ 29.000 ft 210°   210° 8 kt METAR EHVL 220755Z AUTO 21008KT 9999 BKN290 BKN340 16/09 Q1017 BLU
09:25
V
15 °C 10 km+ 32.000 ft 190°   190° 9 kt METAR EHVL 220725Z AUTO 19009KT 9999 BKN320 15/10 Q1017 BLU
08:55
V
15 °C 10 km+ - 200°   200° 8 kt METAR EHVL 220655Z AUTO 20008KT 9999 NCD 15/10 Q1017 BLU
08:25
V
14 °C 10 km+ - 190°   190° 9 kt METAR EHVL 220625Z AUTO 19009KT 9999 NCD 14/11 Q1017 BLU
07:55
V
14 °C 10 km+ - 190°   190° 8 kt METAR EHVL 220555Z AUTO 19008KT 9999 NCD 14/11 Q1017 BLU
07:25
V
13 °C 10 km+ - 190°   190° 6 kt METAR EHVL 220525Z AUTO 19006KT 9999 NCD 13/11 Q1017 BLU
06:55
V
12 °C 10 km+ 32.000 ft 180°   180° 6 kt METAR EHVL 220455Z AUTO 18006KT 9999 BKN320 12/11 Q1017 BLU
06:25
V
11 °C 10 km+ 21.000 ft 180°   180° 5 kt METAR EHVL 220425Z AUTO 18005KT 9999 OVC210 11/10 Q1017 BLU
05:55
V
10 °C 10 km+ 22.000 ft 190°   190° 6 kt METAR EHVL 220355Z AUTO 19006KT 9999 OVC220 10/09 Q1017 BLU
05:25
V
10 °C 10 km+ 22.000 ft 190°   190° 6 kt METAR EHVL 220325Z AUTO 19006KT 9999 OVC220 10/09 Q1017 BLU
04:55
V
10 °C 10 km+ 22.000 ft 190°   190° 5 kt METAR EHVL 220255Z AUTO 19005KT 9999 BKN220 BKN320 10/09 Q1017 BLU
04:25
V
11 °C 10 km+ 22.000 ft 200°   200° 6 kt METAR EHVL 220225Z AUTO 20006KT 9999 OVC220 11/09 Q1018 BLU
03:55
V
11 °C 10 km+ 22.000 ft 210°   210° 7 kt METAR EHVL 220155Z AUTO 21007KT 9999 OVC220 11/10 Q1018 BLU
03:25
V
11 °C 10 km+ 23.000 ft 210°   210° 6 kt METAR EHVL 220125Z AUTO 21006KT 9999 OVC230 11/10 Q1018 BLU
02:55
V
11 °C 10 km+ 29.000 ft 210°   210° 6 kt METAR EHVL 220055Z AUTO 21006KT 9999 OVC290 11/10 Q1018 BLU
02:25
V
11 °C 10 km+ - 200°   200° 6 kt METAR EHVL 220025Z AUTO 20006KT 9999 SCT220 11/10 Q1018 BLU
01:55
V
11 °C 10 km+ 24.000 ft 200°   200° 6 kt METAR EHVL 212355Z AUTO 20006KT 9999 OVC240 11/09 Q1019 BLU
01:25
V
10 °C 10 km+ - 200°   200° 6 kt METAR EHVL 212325Z AUTO 20006KT 9999 SCT260 10/09 Q1019 BLU
00:55
V
11 °C 10 km+ 28.000 ft 200°   200° 5 kt METAR EHVL 212255Z AUTO 20005KT 9999 OVC280 11/09 Q1019 BLU
00:25
V
11 °C 10 km+ 25.000 ft 210°   210° 5 kt METAR EHVL 212225Z AUTO 21005KT 9999 OVC250 11/09 Q1019 BLU

21. Mai 2022

Uhrzeit Code Wetter Temp. Sichtweite Wolken Wind METAR/SPECI
23:55
V
11 °C 10 km+ 25.000 ft 210°   210° 6 kt METAR EHVL 212155Z AUTO 21006KT 9999 OVC250 11/09 Q1019 BLU
23:25
V
11 °C 10 km+ 25.000 ft 220°   220° 6 kt METAR EHVL 212125Z AUTO 22006KT 9999 OVC250 11/09 Q1019 BLU
22:55
V
12 °C 10 km+ 12.000 ft 240°   240° 5 kt METAR EHVL 212055Z AUTO 24005KT 9999 OVC120 12/09 Q1020 BLU
22:25
V
11 °C 10 km+ - 230°   230° 6 kt METAR EHVL 212025Z AUTO 23006KT 9999 NCD 11/09 Q1020 BLU
21:55
V
12 °C 10 km+ 12.000 ft 240°   240° 6 kt METAR EHVL 211955Z AUTO 24006KT 9999 OVC120 12/09 Q1020 BLU
21:25
V
12 °C 10 km+ 13.000 ft 250°   250° 6 kt METAR EHVL 211925Z AUTO 25006KT 9999 BKN130 BKN340 12/09 Q1020 BLU
20:55
V
13 °C 10 km+ 13.000 ft 280°   280° 7 kt METAR EHVL 211855Z AUTO 28007KT 9999 OVC130 13/09 Q1020 BLU
20:25
V
13 °C 10 km+ 13.000 ft 280°   280° 9 kt METAR EHVL 211825Z AUTO 28009KT 9999 OVC130 13/09 Q1020 BLU
19:55
V
14 °C 10 km+ 13.000 ft 280°   280° 10 kt METAR EHVL 211755Z AUTO 28010KT 9999 OVC130 14/10 Q1020 BLU
19:25
V
13 °C 10 km+ 11.000 ft 290°   290° 11 kt METAR EHVL 211725Z AUTO 29011KT 9999 OVC110 13/10 Q1020 BLU
18:55
V
14 °C 10 km+ 11.000 ft 280°   280° 12 kt METAR EHVL 211655Z AUTO 28012KT 9999 OVC110 14/10 Q1020 BLU
18:25
V
14 °C 10 km+ 12.000 ft 270°   270° 12 kt METAR EHVL 211625Z AUTO 27012KT 9999 FEW043 OVC120 14/10 Q1020 BLU
17:55
V
14 °C 10 km+ 13.000 ft 270°   270° 13 kt METAR EHVL 211555Z AUTO 27013KT 9999 OVC130 14/10 Q1020 BLU
17:25
V
15 °C 10 km+ 12.000 ft 270°   270° 13 kt METAR EHVL 211525Z AUTO 27013KT 9999 OVC120 15/10 Q1020 BLU
16:55
V
14 °C 10 km+ 15.000 ft 280°   280° 13 kt METAR EHVL 211455Z AUTO 28013KT 9999 FEW013 OVC150 14/10 Q1020 BLU
16:25
V
15 °C 10 km+ 13.000 ft 280°   280° 15 kt METAR EHVL 211425Z AUTO 28015KT 9999 OVC130 15/10 Q1020 BLU
15:55
V
15 °C 10 km+ 13.000 ft 280°   280° 16 kt METAR EHVL 211355Z AUTO 28016KT 9999 FEW011 OVC130 15/11 Q1021 BLU
15:25
V
15 °C 10 km+ 15.000 ft 280°   280° 17 kt METAR EHVL 211325Z AUTO 28017KT 9999 FEW010 OVC150 15/11 Q1020 BLU
15:00
V
15 °C 10 km+ 16.000 ft 280°   280° 18 kt METAR EHVL 211300Z AUTO 28018KT 9999 FEW010 OVC160 15/11 Q1020 BLU
14:55
V
15 °C 10 km+ 15.000 ft 280°   280° 18 kt METAR EHVL 211255Z AUTO 28018KT 9999 SCT010 SCT012 OVC150 15/11 Q1020 GRN
14:40
M
15 °C 10 km+ 1.300 ft 280°   280° 17 kt METAR EHVL 211240Z AUTO 28017KT 9999 SCT010 BKN013 OVC150 15/11 Q1020 GRN
14:32
V
15 °C 10 km+ 15.000 ft 280°   280° 17 kt METAR EHVL 211232Z AUTO 28017KT 9999 SCT011 OVC150 15/11 Q1020 GRN
14:25
V
15 °C 10 km+ 15.000 ft 280°   280° 18 kt METAR EHVL 211225Z AUTO 28018KT 9999 FEW010 OVC150 15/11 Q1020 BLU
13:55
V
15 °C 10 km+ 17.000 ft 280°   280° 18 kt METAR EHVL 211155Z AUTO 28018KT 9999 FEW010 OVC170 15/11 Q1020 BLU
13:25
V
15 °C 10 km+ 21.000 ft 270°   270° 19 kt METAR EHVL 211125Z AUTO 27019KT 9999 FEW008 OVC210 15/11 Q1020 BLU
13:21
V
15 °C 10 km+ 21.000 ft 270°   270° 19 kt METAR EHVL 211121Z AUTO 27019KT 9999 FEW009 OVC210 15/11 Q1020 BLU
12:55
V
15 °C 10 km+ 20.000 ft 270°   270° 18 kt METAR EHVL 211055Z AUTO 27018KT 9999 FEW010 OVC200 15/11 Q1020 BLU
12:25
V
14 °C 10 km+ 22.000 ft 280°   280° 19 kt METAR EHVL 211025Z AUTO 28019KT 9999 FEW010 OVC220 14/11 Q1019 BLU
11:55
V
15 °C 10 km+ 23.000 ft 280°   280° 20 kt METAR EHVL 210955Z AUTO 28020KT 9999 OVC230 15/11 Q1019 BLU
11:25
V
15 °C 10 km+ - 270°   270° 20 kt METAR EHVL 210925Z AUTO 27020KT 9999 FEW010 15/11 Q1019 BLU
10:55
V
14 °C 10 km+ - 270°   270° 21 kt METAR EHVL 210855Z AUTO 27021KT 9999 NCD 14/11 Q1019 BLU
10:25
V
14 °C 10 km+ - 280°   280° 21 kt METAR EHVL 210825Z AUTO 28021KT 9999 NCD 14/11 Q1019 BLU
09:55
V
14 °C 10 km+ - 280°   280° 21 kt METAR EHVL 210755Z AUTO 28021KT 9999 SCT270 14/11 Q1018 BLU
09:25
V
14 °C 10 km+ - 280°   280° 22 kt METAR EHVL 210725Z AUTO 28022KT 9999 FEW012 14/11 Q1018 BLU
Ältere Daten

Laden Sie unsere App herunter

Einfacher Zugriff auf das gesamte Flugwetter auf Ihrem Mobiltelefon und Tablet.
Mit vielen Funktionen, die auf der Website nicht verfügbar sind, wie Offline-Unterstützung und eine persönliche Flughafenliste.

Wir und Dritte verfolgen dein Internetverhalten auf unserer Website mit Cookies. Wenn du fortfährst, gehen wir davon aus, dass du mit unserer Cookie-Richtlinie einverstanden bist. Mehr erfahren